Погода в Гоще

Украина / Ровненская область     50°35′55″N   26°41′04″E
темп.,
°C
ветер,
м/с
пор.,
м/с
влажн.,
%
обл.,
%
осадки,
мм/ч
давл.,
гПа
погр.,
м
27 ноября, сб
сб2723:00+6ююв81682100 0.2 996975
02:00+7ююв71389100 1.4 9931039
05:00+7ююз51086100 0.1 992509
08:00+8юз71372100 0.2 9931016
11:00+7зюз71180100 0.1 996962
14:00+6зюз7137287 0.1 998869
17:00+3зюз487944 0.0 1000246
20:00+2зюз338742 0.0 100245
28 ноября, вс
вс2823:00+1ююз22895 0.0 100312
02:00+2ююв34895 0.0 100354
05:00+2ю349053 0.0 100251
08:00+3ююв3786100 0.1 1002137
11:00+6юв2475100 0.0 1002158
14:00+8юв3970100 0.0 1000494
17:00+6ююв358498 0.8 999105
20:00+5ююв3785100 0.8 999142
29 ноября, пн
пн2923:00+4ююв3588100 0.0 99774
02:00+5юв4888100 0.0 995118
05:00+5юв41094100 0.0 991209
08:00+6ююв4996100 0.0 990304
11:00+8юз71084100 0.0 990706
14:00+2з91484100 0.1 992794
17:00+2з101574100 0.0 9931089
20:00+2з91577100 0.1 9951371
30 ноября, вт
вт3023:00+1з10167898 0.0 9961151
02:00+1з101676100 0.1 9971230
05:00+1з101675100 0.0 9991250
08:000з10167899 0.0 10001028
11:00+1з9136964 0.0 10031197
14:00+2зсз8126463 0.1 10031330
17:000з712685 0.0 1004778
20:00−1зюз6128111 0.0 1004574
1 декабря, ср
ср123:00−2зюз5128795 0.0 1003450
02:00−1юз51372100 0.0 1002666
05:00−1юз51292100 0.3 1001758
08:000зюз51398100 1.8 1001744
11:00+1з51198100 1.2 1003627
14:00+1з6119496 1.6 1004630
17:00+1зюз51191100 0.1 1005596
20:00+1юз4893100 0.1 1004259